Location: Mexico
(19.4000°N, 99.1500°W)
Time: 14:18:04
(UTC-06:00)

ISS - Pass Details

Date: 13 January 2021
Orbit: 418 x 419 km, 51.6° (Epoch: 16 January)

Event Time Altitude Azimuth Distance (km) Brightness Sun altitude
Rises 20:03:51 0° 231° (SW) 2,347 1.1 -24.5°
Reaches altitude 10° 20:06:01 10° 239° (WSW) 1,486 0.0 -25.0°
Enters shadow 20:08:12 31° 269° (W) 754 -1.9 -25.5°
